Location: Unspecified
(0.0000°N, 0.0000°E)
Time: 11:18:40
(UTC+00:00)

Courier 1B - Pass Details

Date: 25 November 2019
Orbit: 963 x 1209 km, 28.3° (Epoch: 14 December)

Event Time Altitude Azimuth Distance (km) Brightness Sun altitude
Rises 10:18:28 0° 311° (NW) 3,669 10.2 60.1°
Reaches altitude 10° 10:21:15 10° 316° (NW) 2,703 9.6 60.5°
Maximum altitude 10:27:28 48° 30° (NNE) 1,233 8.7 61.6°
Drops below altitude 10° 10:33:40 10° 103° (ESE) 2,696 10.3 62.6°
Sets 10:36:26 0° 108° (ESE) 3,660 10.8 63.0°
